This is the latest recevied weather packets stored in our database for station/object KB1JDX. If no packets are shown the sender has not sent any weather packets the latest 10 day(s).
| Time | Temp. | Humidity | Pressure | Rain* | Wind** | Luminosity | Snow |
|---|---|---|---|---|---|---|---|
| 1777555232 | 8.89° C | 100% | 1007.5 hPa | 1.52 mm | 0 m/s | - | - |
| 1777555165 | 8.89° C | 100% | 1007.5 hPa | 1.52 mm | 0 m/s | - | - |
| 1777554029 | 8.89° C | 100% | 1007.6 hPa | 1.02 mm | 0 m/s | - | - |
| 1777552829 | 8.89° C | 100% | 1007.7 hPa | 1.02 mm | 0 m/s | - | - |
| 1777551629 | 8.33° C | 100% | 1007.7 hPa | 1.02 mm | 0 m/s | - | - |
| 1777551565 | 8.33° C | 100% | 1007.7 hPa | 1.02 mm | 0 m/s | - | - |
| 1777550429 | 8.33° C | 1% | 1007.9 hPa | 0 mm | 0 m/s | - | - |
| 1777549229 | 8.33° C | 100% | 1007.8 hPa | 0 mm | 0 m/s | - | - |
| 1777548030 | 8.33° C | 1% | 1007.9 hPa | 0 mm | 0 m/s | - | - |
| 1777547965 | 8.33° C | 1% | 1007.7 hPa | 0 mm | 0 m/s | - | - |
| 1777546829 | 8.33° C | 1% | 1007.3 hPa | 0 mm | 0 m/s | - | - |
| 1777545630 | 8.33° C | 2% | 1007.3 hPa | 0 mm | 0 m/s | - | - |
| 1777544429 | 8.33° C | 3% | 1007.3 hPa | 0 mm | 0 m/s | - | - |
| 1777544365 | 8.33° C | 3% | 1007.3 hPa | 0 mm | 0 m/s | - | - |
| 1777543232 | 8.33° C | 4% | 1007.5 hPa | 0.76 mm | 0 m/s | - | - |
| 1777542029 | 8.33° C | 5% | 1007.2 hPa | 0.76 mm | 0 m/s | - | - |
| 1777540829 | 8.33° C | 7% | 1007.6 hPa | 0.76 mm | 0 m/s | - | - |
| 1777540765 | 8.33° C | 7% | 1007.7 hPa | 0.76 mm | 0 m/s | - | - |
| 1777539629 | 8.33° C | 8% | 1007.9 hPa | 1.02 mm | 0 m/s | - | - |
| 1777538429 | 8.33° C | 8% | 1008.3 hPa | 1.02 mm | 0 m/s | - | - |
| 1777537229 | 8.33° C | 11% | 1008.3 hPa | 1.02 mm | 0 m/s | - | - |
| 1777537165 | 8.33° C | 11% | 1008.2 hPa | 1.02 mm | 0 m/s | - | - |
| 1777536029 | 8.33° C | 13% | 1007.8 hPa | 0.76 mm | 0 m/s | - | - |
| 1777534829 | 8.33° C | 15% | 1007.8 hPa | 0.76 mm | 0 m/s | - | - |
| 1777533629 | 8.33° C | 20% | 1008.4 hPa | 0.76 mm | 0 m/s | - | - |
* Rain latest hour (hover to see other rain measurements)
** Current wind speed in m/s (hover to see current wind gust speed)